Location: ??
(35.4824°N, 139.4679°E)
Time: 08:12:03
(UTC+00:00)

Cosmos 2228 - Pass Details

Date: 29 October 2020
Orbit: 590 x 617 km, 82.5° (Epoch: 03 December)

Event Time Altitude Azimuth Distance (km) Brightness Sun altitude
Exits shadow 19:25:28 - 348° (NNW) 2,669 6.2 -20.1°
Reaches altitude 10° 19:27:11 10° 346° (NNW) 1,977 5.5 -19.8°
Maximum altitude 19:31:31 63° 266° (W) 690 2.9 -18.9°
Drops below altitude 10° 19:35:50 10° 185° (S) 1,971 5.6 -18.0°
Sets 19:38:03 0° 182° (S) 2,873 6.5 -17.6°
